Wind_Speed
5 6 10 7 5 3 11 16 14 11 11 9 9 8 12 15 14 4 23 19 24 24 21 18 18 16 15 16 17 16 15 14 13 11 9 8 7 6 4 3 2 2 3 3 3 3 4 5 5
9 7 8 5 5 10 10 15 12 10 10 12 7 6 3 13 12 15 19 23 24 23 20 19 19 17 16 15 15 16 14 13 12 10 10 8 6 4 3 3 1 1 2 2 2 2 4 4 5
7 6 5 4 4 11 11 16 11 9 8 6 6 7 4 8 10 18 20 24 22 22 20 20 20 16 15 14 14 14 13 12 10 8 7 5 4 4 3 3 2 1 1 2 1 3 4 4 5
7 5 5 2 14 16 16 14 12 10 8 1 3 11 11 7 14 12 24 23 20 19 19 19 20 16 14 13 13 13 12 11 10 8 7 5 4 4 4 4 4 3 2 2 0 1 2 3 3
10 5 6 12 13 15 14 10 9 10 6 7 4 13 13 9 12 22 24 22 20 19 18 17 19 16 14 14 13 12 11 10 9 8 7 5 5 5 5 4 4 3 3 1 1 1 1 2 2
6 4 2 8 13 12 12 8 8 11 10 7 11 15 10 11 18 22 22 19 18 18 16 16 15 14 13 12 12 11 9 8 8 7 6 5 5 4 3 2 1 2 4 2 1 1 1 3 3
10 8 7 11 13 11 12 1 11 9 8 10 3 13 10 15 19 20 20 17 16 16 18 15 14 13 12 11 10 10 9 9 8 7 6 5 4 4 4 4 4 4 3 3 2 1 1 2 3
5 8 3 11 10 13 7 8 4 11 14 7 2 7 12 18 20 20 19 16 14 14 16 18 14 13 12 10 10 9 8 8 7 7 6 6 6 6 5 4 5 5 5 4 4 4 3 4 4
6 7 6 8 8 14 8 12 5 6 8 8 4 8 22 22 21 21 19 17 14 13 14 14 17 11 11 8 12 10 8 8 8 7 8 5 9 11 10 10 7 4 5 4 4 4 5 7 8
4 6 14 8 4 10 5 8 8 11 7 11 7 12 22 23 20 19 18 17 16 15 13 12 17 15 14 12 14 9 11 9 9 9 9 8 9 5 7 9 6 6 6 5 5 4 6 10 9
13 5 6 5 8 4 12 7 3 11 3 10 13 13 17 19 18 17 16 16 17 15 14 13 12 15 14 13 12 8 13 9 11 9 8 10 8 8 8 10 7 5 7 6 8 9 6 6 2
6 6 2 3 4 7 1 6 7 5 12 8 12 15 16 15 13 15 15 15 17 17 15 15 12 11 11 11 11 11 13 11 13 11 12 11 9 6 8 8 5 4 6 5 6 8 5 4 3
7 3 3 4 2 5 5 2 3 8 5 12 13 15 16 15 14 14 13 12 12 14 15 15 14 12 12 10 11 10 10 10 11 10 13 13 12 10 8 9 8 7 8 7 6 6 6 3 7
2 4 1 5 3 9 8 6 4 6 7 12 13 14 14 14 14 14 13 13 12 13 14 14 15 15 15 14 11 11 12 10 13 12 13 15 13 12 12 11 11 10 9 8 9 4 5 7 7
9 10 8 8 3 1 9 5 7 9 10 13 12 11 13 12 13 14 14 12 14 14 14 14 14 15 16 15 14 14 13 13 13 14 13 13 15 14 13 13 12 12 11 9 8 8 10 11 8
14 9 5 10 10 4 7 9 10 9 12 12 12 11 11 13 14 15 14 13 16 14 13 14 14 16 16 16 16 15 15 14 14 15 15 16 16 16 15 16 15 14 13 12 11 13 12 9 10
9 4 6 8 6 3 7 8 12 9 10 12 12 12 11 12 13 15 15 16 16 15 15 15 15 14 15 16 16 16 15 16 16 16 16 17 18 18 18 17 17 15 15 15 14 15 13 12 14
5 2 4 6 8 4 6 6 13 11 11 12 12 13 12 13 14 17 17 18 17 18 17 17 17 16 15 15 16 16 16 16 16 17 18 17 18 19 20 19 19 18 18 17 17 15 14 14 16
3 3 8 9 2 10 5 5 9 14 12 13 13 13 14 14 15 19 19 19 18 19 20 20 20 18 19 19 18 17 18 17 17 18 18 18 20 19 21 21 20 21 20 19 17 14 15 20 19
8 3 15 5 4 9 2 10 9 11 10 11 12 15 14 14 15 17 21 21 21 21 22 22 22 22 22 22 21 20 18 19 20 19 18 19 19 19 21 22 22 23 24 27 23 17 18 20 22
13 9 7 0 8 5 7 14 11 9 7 10 10 10 12 15 15 16 17 22 22 23 23 23 23 23 25 24 21 21 20 21 21 22 20 21 22 21 22 22 24 23 24 25 20 21 22 21 22
7 6 4 6 7 6 9 5 7 16 13 9 9 8 12 13 13 14 16 20 21 22 21 22 23 25 25 23 24 23 22 22 23 23 21 25 24 26 27 26 26 26 26 26 26 23 23 24 20
5 6 7 6 13 9 9 5 5 5 12 14 16 12 12 12 14 13 14 17 16 18 18 20 22 24 24 22 28 23 26 26 24 22 23 24 23 28 29 29 28 29 29 28 27 25 20 22 22
8 11 8 12 14 7 14 8 1 13 10 11 15 14 11 11 12 10 14 15 13 13 14 14 18 19 19 20 21 23 24 21 21 21 22 24 25 26 28 30 33 35 32 32 29 29 27 29 26
10 12 5 7 6 4 3 2 6 28 26 1 5 11 14 13 12 12 10 10 13 14 14 13 14 15 15 16 17 18 20 20 20 22 24 25 25 23 28 30 30 32 33 34 32 32 31 30 29
12 12 8 4 3 0 7 5 9 19 3 2 5 6 8 7 8 13 16 17 17 16 15 15 16 16 15 14 14 14 15 16 17 18 20 22 24 25 25 24 29 30 29 30 31 31 27 28 28
11 5 8 10 12 6 5 11 5 8 6 4 4 8 10 12 9 13 9 13 15 16 16 18 18 15 14 14 13 12 12 13 14 15 16 20 21 23 25 24 23 26 28 28 27 26 26 26 26
10 11 12 7 4 6 8 11 12 6 6 7 10 9 10 11 13 11 8 10 13 15 16 15 15 15 14 12 10 8 8 9 11 12 15 17 20 21 22 22 22 24 28 28 28 27 26 26 25
8 9 2 7 7 7 9 7 6 4 6 8 9 13 14 14 13 19 7 11 13 14 14 14 14 13 11 10 9 8 8 9 10 12 13 15 17 19 20 21 23 24 25 24 25 26 26 23 23
8 9 8 8 7 8 5 11 10 6 7 8 13 12 12 13 15 13 13 10 13 13 14 13 12 11 10 9 8 8 8 9 11 12 13 14 16 18 20 21 22 23 24 23 23 22 20 19 19
Wind_Direction
268 283 300 270 260 194 85 93 86 113 105 86 70 26 59 28 19 58 145 142 143 145 152 151 153 148 146 154 165 165 163 161 160 164 162 163 169 172 173 153 127 85 84 78 76 68 70 66 56
291 314 264 280 253 96 74 94 93 83 91 101 102 141 63 73 58 128 137 141 146 145 152 158 158 156 155 153 160 168 169 165 168 165 168 176 182 167 174 169 161 64 15 14 17 35 41 50 53
286 276 280 252 16 89 89 87 85 77 113 135 109 39 26 65 110 132 134 143 145 146 157 161 160 161 158 154 154 159 159 167 175 172 174 188 185 181 190 204 220 244 289 321 356 11 19 35 44
296 199 257 10 75 72 82 92 111 115 120 103 41 88 86 73 124 128 146 147 145 148 152 162 161 161 159 157 159 157 157 163 167 175 186 198 199 207 215 229 233 231 243 265 160 53 35 20 44
260 260 261 97 73 84 73 72 62 82 105 106 303 93 93 111 112 135 146 150 150 149 144 156 163 161 162 164 169 168 170 173 183 186 196 205 218 232 241 234 232 225 196 139 156 83 13 8 19
231 234 213 91 91 102 96 86 85 78 68 97 99 104 87 123 134 146 150 153 154 150 144 157 165 168 169 171 176 177 184 188 199 203 204 214 227 221 210 177 188 169 132 117 115 152 354 355 345
289 270 85 108 109 89 90 357 77 85 100 87 146 83 122 146 145 149 155 160 155 152 147 159 165 171 174 178 184 183 190 196 203 205 216 222 226 216 196 179 144 128 128 105 85 66 290 280 303
278 318 40 104 98 93 101 68 345 73 71 100 347 112 159 145 155 152 158 164 165 158 162 160 170 177 183 190 195 188 198 204 214 214 216 215 218 217 196 200 178 152 165 176 191 214 237 252 259
243 244 99 77 66 110 163 119 92 104 121 62 61 40 131 148 157 157 160 163 171 172 171 171 159 182 196 216 190 195 203 213 204 214 214 222 213 194 199 179 185 205 204 204 209 272 263 260 226
231 293 80 71 12 108 115 107 131 134 160 124 85 103 130 154 162 163 169 169 179 179 176 190 166 172 186 201 169 194 203 211 211 207 190 219 231 194 92 182 219 241 236 242 228 243 268 277 260
102 253 54 118 100 317 123 113 54 74 315 77 112 135 145 160 168 168 179 176 180 181 186 191 191 171 177 208 186 181 212 202 186 221 210 231 224 216 202 200 203 194 240 251 212 243 235 259 290
322 80 305 104 154 154 98 100 121 357 52 73 113 144 154 165 174 170 180 177 179 180 189 187 198 187 205 177 197 183 222 194 204 193 206 229 230 218 250 220 213 189 226 244 247 240 229 204 247
306 28 227 114 281 255 130 195 31 95 88 100 123 150 161 171 168 171 176 169 179 179 189 190 187 196 198 201 199 228 216 211 216 197 198 211 224 224 221 236 237 238 221 226 238 267 285 247 256
6 273 194 162 176 176 207 172 197 110 131 123 141 156 168 172 172 167 180 169 180 179 185 192 190 194 200 204 212 212 226 219 225 226 216 209 226 227 228 228 232 232 234 243 241 195 273 283 282
274 274 179 144 226 233 304 165 134 129 143 143 149 164 167 176 174 174 184 180 188 174 181 188 196 196 202 206 210 218 223 223 224 225 228 217 223 228 233 234 233 232 230 244 267 273 256 250 267
239 232 27 151 174 212 157 253 130 136 152 157 148 155 172 176 180 182 178 188 177 195 187 190 194 195 200 206 211 219 223 231 229 229 229 222 227 229 228 236 235 232 235 232 240 249 257 270 279
146 218 179 139 190 184 258 204 124 159 167 160 162 159 176 176 183 181 182 187 178 195 180 194 198 202 200 207 214 220 226 230 233 234 232 223 227 230 230 236 236 239 238 244 249 247 250 262 263
93 256 101 158 128 214 238 153 137 166 183 169 174 170 177 178 185 178 191 188 188 186 197 199 205 210 209 210 215 224 228 232 235 236 236 231 228 227 230 235 240 239 236 243 247 257 269 286 286
317 184 109 98 101 238 65 199 151 158 195 174 180 179 185 188 181 181 193 197 200 201 201 208 210 211 211 214 218 222 229 233 236 237 236 234 231 229 222 233 234 234 242 244 260 264 236 252 270
241 159 76 326 98 274 114 86 119 144 182 185 196 180 194 197 193 192 194 205 209 211 211 211 217 214 216 221 224 231 233 238 240 241 237 231 233 233 235 230 234 233 234 231 239 253 260 267 260
357 5 1 309 130 208 154 133 122 132 158 147 205 187 192 194 203 194 197 205 214 216 216 217 215 220 220 224 229 235 241 249 244 242 243 236 228 229 230 234 235 245 242 247 226 228 232 249 260
205 309 293 245 130 282 182 31 165 158 133 164 187 182 185 193 199 195 198 208 218 221 217 220 216 218 224 224 231 239 237 239 244 239 245 237 233 230 226 229 233 234 240 244 246 241 239 229 248
65 327 304 271 251 182 226 85 74 152 148 164 158 176 178 173 184 192 199 199 212 210 216 214 212 217 221 224 226 236 242 249 253 247 246 241 237 241 232 230 229 231 234 238 243 244 237 242 236
308 273 254 238 85 7 264 133 350 336 282 178 152 162 163 182 179 193 186 191 202 203 209 207 198 204 217 225 232 233 250 261 262 259 252 247 245 247 243 240 236 235 233 235 234 235 239 237 236
243 246 252 288 196 175 74 268 174 203 245 151 181 173 177 180 197 194 212 199 200 200 203 195 190 196 209 218 226 235 242 250 260 264 262 264 266 244 234 235 239 244 244 243 238 240 235 232 233
303 318 331 281 17 192 132 104 146 193 44 221 263 276 297 213 215 226 198 198 207 206 189 190 181 187 194 202 213 224 235 243 249 253 254 261 263 264 263 249 244 243 245 246 242 241 239 235 232
284 317 340 310 265 248 152 116 177 120 120 110 295 227 251 257 234 267 228 186 199 187 191 180 170 176 186 193 196 210 223 236 252 266 272 266 263 263 268 268 257 251 243 243 245 241 240 237 235
285 332 301 282 319 293 50 268 67 138 47 30 307 330 326 309 281 233 245 220 189 186 184 175 171 175 180 183 187 204 222 239 252 262 268 273 276 275 271 267 264 259 252 245 247 249 247 242 234
311 279 240 295 299 309 293 101 120 66 3 334 314 302 319 320 312 327 219 255 178 187 181 176 175 174 176 183 189 202 223 236 249 261 272 276 279 279 276 272 263 261 257 249 245 246 244 244 238
288 302 291 308 314 318 331 272 58 26 308 306 314 324 325 333 321 310 296 239 167 188 189 188 183 184 189 194 197 213 238 251 263 269 275 279 280 279 276 273 266 255 252 254 252 248 246 243 237
Height
756 755 753 749 765 751 752 755 738 752 751 741 746 749 757 755 766 792 779 782 788 795 802 806 809 813 815 818 820 823 825 827 829 832 832 834 836 837 838 840 841 842 843 844 845 846 846 847 847
756 757 752 747 771 751 772 739 753 745 744 742 749 751 752 771 763 771 777 784 789 795 802 807 810 813 816 818 821 823 825 827 830 833 834 835 836 838 839 841 843 844 844 845 845 846 847 848 848
757 756 752 751 745 762 761 743 750 747 743 746 752 747 753 770 768 773 780 786 790 796 803 808 812 815 817 820 822 824 826 828 830 832 834 835 837 838 840 842 843 844 845 845 845 846 846 847 848
755 748 744 750 762 745 745 745 744 749 746 745 745 762 764 769 771 774 783 788 793 798 803 808 813 816 819 821 823 825 827 829 831 833 834 836 837 839 841 842 843 844 845 845 845 845 846 847 847
752 745 759 760 759 746 742 741 739 746 747 749 747 765 773 773 775 781 785 789 793 799 804 811 814 817 820 822 824 826 828 830 831 833 834 836 837 839 841 841 842 843 844 844 845 845 846 846 846
751 748 765 769 758 747 742 739 739 746 746 752 754 763 774 776 779 783 787 790 793 797 805 812 815 818 821 823 825 827 829 830 832 833 834 836 837 839 840 841 842 843 843 845 845 845 846 846 846
753 754 758 753 761 757 748 736 740 747 749 753 747 763 772 774 779 783 788 791 793 796 803 811 816 819 821 823 825 828 829 831 832 833 835 836 838 839 841 842 842 843 844 844 844 845 846 846 846
750 749 751 745 758 764 748 741 739 740 754 745 745 760 776 771 779 783 788 791 793 796 800 806 814 818 821 823 825 827 829 830 832 833 834 835 837 838 840 841 842 843 843 843 844 843 844 844 843
744 768 760 753 756 756 743 749 741 739 749 747 749 747 753 771 777 782 787 791 795 797 799 803 811 817 820 820 823 826 828 829 830 831 832 834 835 835 837 839 841 842 842 843 843 842 843 841 838
752 771 751 741 740 747 743 738 743 745 749 752 755 753 762 771 777 780 784 788 794 796 798 801 803 812 819 819 820 824 825 827 829 829 831 832 831 834 836 838 838 840 841 841 841 841 840 836 827
743 781 740 743 736 734 739 739 735 742 750 742 755 761 766 771 775 778 782 786 791 796 799 801 801 806 813 814 816 821 821 823 825 829 830 830 831 832 833 834 835 837 838 839 839 838 837 837 835
773 740 740 743 737 739 743 735 740 740 745 738 749 759 766 771 773 776 780 783 787 793 797 800 802 805 808 811 815 818 818 819 821 824 829 830 830 830 831 830 832 834 837 837 838 836 835 836 837
744 742 739 737 737 737 735 744 744 745 741 743 752 760 765 767 772 775 778 783 785 791 795 798 802 806 809 811 813 815 816 818 819 821 825 827 827 828 829 831 832 833 833 834 835 835 835 835 834
741 739 739 738 735 734 741 739 741 744 740 749 756 760 763 765 770 774 778 781 785 790 794 797 802 806 809 812 814 816 816 817 820 819 821 824 826 827 827 829 830 831 831 831 832 832 833 833 832
739 749 738 737 746 739 737 756 752 739 741 752 755 759 762 765 768 772 776 779 785 788 792 796 801 805 808 811 814 816 816 816 817 818 819 821 824 825 827 827 827 827 828 830 831 832 829 828 828
746 737 805 742 738 741 748 795 747 738 743 752 755 758 761 763 767 771 775 779 782 784 790 794 797 801 805 808 811 812 814 814 814 815 816 819 821 823 825 825 824 825 825 825 826 825 825 823 823
750 769 759 749 731 734 738 766 737 738 741 749 753 757 759 761 764 769 773 776 779 784 788 792 795 798 801 806 808 810 811 812 812 812 812 814 817 820 822 822 822 823 823 822 822 821 821 820 819
772 768 750 754 739 737 740 741 735 737 739 745 747 752 756 758 761 766 770 772 776 781 785 789 793 796 799 802 805 806 807 808 808 808 808 809 812 815 818 819 819 820 820 820 820 820 819 818 816
737 741 748 737 733 735 740 740 730 732 737 740 743 748 751 752 754 760 766 769 772 776 781 785 789 792 796 798 799 801 801 802 802 803 804 805 808 810 812 814 815 817 817 817 817 818 818 819 817
735 745 745 741 729 730 732 740 729 729 734 735 737 739 744 747 746 752 759 764 767 770 774 779 784 788 791 792 794 795 795 795 796 797 798 801 804 806 808 809 810 810 811 811 813 815 816 816 813
745 742 745 746 734 729 733 748 745 733 730 730 731 730 734 738 742 744 750 756 759 763 768 773 778 782 784 787 790 791 792 792 791 792 794 795 797 799 801 803 806 807 807 806 807 809 812 813 811
791 731 733 735 752 791 729 787 749 735 738 739 732 732 729 731 734 736 742 748 752 755 760 766 771 775 779 782 784 784 784 784 784 788 789 789 791 792 793 795 797 799 801 802 802 804 804 806 807
747 726 730 730 731 735 740 769 757 736 743 735 726 728 722 725 727 731 734 738 743 746 752 757 763 768 772 775 777 779 780 779 780 781 783 783 785 787 787 788 789 791 793 794 796 797 798 800 801
724 733 729 723 750 828 752 762 801 781 756 725 716 718 720 720 722 724 728 732 738 742 746 750 756 762 767 771 774 775 776 776 776 775 776 776 778 780 781 781 781 782 782 784 785 788 790 793 794
729 742 789 782 771 778 734 748 759 757 733 715 717 711 710 712 717 720 725 729 733 737 742 747 753 759 764 767 769 771 773 775 775 775 774 773 771 770 770 772 774 776 777 777 778 780 781 783 786
730 733 755 782 784 756 731 758 752 724 711 710 710 710 708 707 708 710 712 720 728 733 740 744 749 754 758 761 764 766 768 769 769 769 769 768 766 765 765 765 767 768 769 770 771 773 775 775 777
750 754 721 745 727 750 732 728 711 713 716 715 715 712 711 706 705 706 707 712 722 731 739 741 746 750 753 756 758 761 764 765 765 765 765 764 763 761 760 761 761 762 762 763 766 766 766 767 769
733 723 753 737 780 784 755 751 755 736 729 723 720 714 708 703 700 700 704 709 718 729 737 741 744 747 749 752 754 757 759 761 762 762 762 761 759 758 756 756 756 755 755 756 758 759 760 760 761
738 738 734 733 746 773 776 763 719 729 727 726 721 713 708 707 705 703 700 708 716 726 736 740 742 744 747 749 751 753 756 757 757 757 756 756 755 754 752 751 750 749 749 749 751 751 752 753 755
730 740 741 759 768 746 760 760 705 714 717 716 716 713 709 708 709 710 704 708 718 728 737 739 740 742 744 747 748 750 752 753 753 752 751 750 750 749 748 747 744 743 742 743 743 745 747 748 750